[[{"header":{"parameterUnit":"m.s-1","parameterCategory":1,"la1":30.2991,"la2":30.254,"lo1":-89.0895,"lo2":-89.0444,"dy":0.0017,"dx":0.0017,"nx":28,"ny":28,"refTime":"2024-07-22T21:00:00:Z","depth":0,"parameterNumber":2,"parameterNumberName":"U-component_of_WINDS"},"data":[0,0,0,0,0,0,0,0,0,0,0,0,0,0,0,0,0,0,0,0,0,0,0,0,0,0,0,0,0,0,0,0,0,0,0,0,0,0,0,0,0,0,0,0,0,0,0,0,0,0,0,0,0,0,0,0,0,0,2.2977,2.2978,0,2.3047,2.3047,2.3048,2.3029,2.3027,2.3026,2.3024,2.3094,2.3097,2.3101,0,0,0,0,0,0,0,0,0,0,0,0,0,2.2825,2.2828,2.2977,2.2978,2.2979,2.3047,2.3047,2.3048,2.3029,2.3027,2.3025,2.3024,2.3093,2.3097,2.3101,0,0,0,0,0,0,0,0,0,0,0,0,0,2.2892,2.2829,2.2977,2.2977,2.2978,2.3046,2.3048,2.3049,2.3029,2.3027,2.3025,2.3023,2.3092,2.3097,2.3101,2.3173,0,0,2.3116,2.3118,0,0,0,0,0,0,0,0,2.2889,2.2898,2.2977,2.2978,2.2978,2.3027,2.3019,2.309,2.303,2.301,2.3024,2.3022,2.3074,2.308,2.3097,2.3176,2.3179,2.3116,2.3119,2.3121,2.3123,0,0,0,0,0,0,0,2.2884,2.2895,2.3005,2.2978,2.2979,2.2973,2.298,2.3033,2.3053,2.3011,2.301,2.3019,2.3074,2.3093,2.3099,2.318,2.3116,2.312,2.3123,2.3125,2.3318,2.332,0,0,0,0,0,0,2.2879,2.2891,2.3003,2.3007,2.2927,2.2978,2.2986,2.3013,2.3052,2.3056,2.302,2.3017,2.3086,2.3093,2.3101,2.3185,2.3121,2.3126,2.3128,2.3316,2.3319,2.3321,0,0,0,0,0,0,2.2876,2.2889,2.3,2.2949,2.2962,2.2982,2.3014,2.3016,2.3035,2.3059,2.3062,2.3036,2.3084,2.3094,2.3155,2.3187,2.3128,2.3132,2.3313,2.3317,2.332,2.3355,0,0,0,0,0,0,2.2871,2.2888,2.2916,2.295,2.2965,2.3053,2.3016,2.3019,2.3043,2.304,2.3075,2.3078,2.3083,2.3148,2.3159,2.3193,2.3136,2.331,2.3315,2.3319,2.3351,2.3359,2.3366,0,0,0,0,0,2.2866,2.2924,2.2918,2.2932,2.3001,2.3055,2.3064,2.3069,2.3046,2.3074,2.3089,2.3077,2.3182,2.3154,2.3167,2.3202,2.3308,2.3313,2.3318,2.3347,2.3357,2.3366,0,0,0,0,0,0,2.2895,2.2929,2.2922,2.2993,2.3021,2.3052,2.3087,2.308,2.3115,2.311,2.3115,2.3122,2.3183,2.3199,2.3167,2.3272,2.3242,2.325,2.3259,2.3269,2.3276,2.327,2.314,0,0,0,0,0,2.2909,2.2951,2.2978,2.3038,2.3052,2.3067,2.3091,2.3092,2.3121,2.3133,2.3153,2.3181,2.322,2.3246,2.3283,2.3353,2.3359,2.3384,2.3391,2.3398,2.3404,2.3439,2.3449,2.3338,2.3338,2.3338,0,0,2.294,2.2963,2.2989,2.3044,2.3066,2.3107,2.3077,2.3124,2.3154,2.314,2.3197,2.3213,2.3244,2.3309,2.3339,2.3324,2.3436,2.3404,2.3409,2.3412,2.3445,2.3456,2.3465,2.3341,2.3341,2.334,0,0,2.3015,2.3039,2.3089,2.3112,2.3145,2.3155,2.3167,2.3198,2.3207,2.3265,2.3255,2.329,2.3359,2.338,2.3401,2.3482,2.3472,2.3495,2.3534,2.3568,2.3576,2.3584,2.361,2.362,2.3501,2.3501,2.3501,0,2.3049,2.3112,2.3116,2.3162,2.3185,2.3175,2.3225,2.3246,2.329,2.3306,2.3289,2.3372,2.3393,2.3461,2.348,2.3498,2.351,2.349,2.3575,2.3583,2.359,2.3615,2.3625,2.3503,2.3503,2.3503,2.3503,0,2.3149,2.3193,2.323,2.3272,2.3299,2.3347,2.3357,2.3384,2.3383,2.3393,2.345,2.3475,2.3516,2.3532,2.3532,2.3599,2.3589,2.3574,2.3543,2.3603,2.3626,2.3636,2.3507,2.3506,2.3505,2.3505,0,0,2.3246,2.3288,2.3301,2.3319,2.3354,2.3387,2.3434,2.3473,2.3495,2.3526,2.3563,2.3619,2.3605,2.3627,2.3629,2.3659,2.3718,2.364,2.3641,2.3651,2.3791,2.3801,2.3812,2.3712,2.3714,2.3716,2.3787,0,2.3323,2.3405,2.3409,2.3483,2.3521,2.3511,2.355,2.3576,2.3586,2.362,2.3631,2.367,2.3649,2.3662,2.3692,2.3705,2.3746,2.37,2.3745,2.3747,2.3735,2.3825,2.3836,2.3902,2.3797,2.3799,2.38,0,2.3424,2.3456,2.3533,2.356,2.3577,2.3613,2.3647,2.3681,2.3708,2.3713,2.3737,2.3734,2.3779,2.3748,2.381,2.3778,2.3797,2.3806,2.3808,2.3811,2.3775,2.3827,2.3924,2.3933,2.3815,2.3814,2.3813,0,2.3483,2.3546,2.3599,2.3615,2.3649,2.3673,2.3688,2.3714,2.3736,2.3767,2.3781,2.3817,2.3836,2.3863,2.3868,2.3845,2.3928,2.3898,2.3932,2.3932,2.3949,2.3947,2.4047,2.3965,2.3965,2.3964,2.3964,0,2.3567,2.3614,2.3626,2.3658,2.371,2.3714,2.3764,2.3778,2.38,2.3833,2.3827,2.3859,2.3865,2.3897,2.3902,2.395,2.396,2.3964,2.3964,2.3963,2.3962,2.3974,2.3968,2.3967,2.3966,2.3966,2.3965,0,2.3641,2.3651,2.3708,2.3735,2.3742,2.3779,2.3801,2.3831,2.3841,2.3883,2.3893,2.3908,2.3945,2.3954,2.3999,2.4002,2.4058,2.4055,2.4049,2.4048,2.408,2.4076,2.4189,2.4203,2.4114,2.4114,2.4115,0,2.3693,2.3729,2.3759,2.3781,2.3796,2.3833,2.3855,2.386,2.3883,2.3915,2.3941,2.3978,2.4007,2.4068,2.4082,2.4115,2.4111,2.4149,2.4116,2.4113,2.4109,2.4105,2.4108,2.4154,2.4155,2.4156,2.4157,0,2.3784,2.3786,2.3819,2.3853,2.388,2.3907,2.3933,2.3951,2.3958,2.3985,2.4023,2.4046,2.4091,2.4126,2.416,2.4174,2.4166,2.4167,2.4176,2.4174,2.4168,2.4169,2.4063,2.4164,2.4163,2.4163,2.4162,2.4162,2.3847,2.3877,2.3901,2.3937,2.3957,2.398,2.4009,2.4021,2.4053,2.409,2.4091,2.4131,2.4155,2.4199,2.4215,2.4246,2.4234,2.4248,2.4251,2.4254,2.4255,2.4165,2.4252,2.4252,2.4252,2.4252,2.4251,0,2.3935,2.3949,2.3983,2.4018,2.4045,2.4036,2.4063,2.4086,2.4122,2.4145,2.4174,2.4216,2.425,2.4266,2.4299,2.432,2.4317,2.4328,2.4326,2.4329,2.4265,2.4253,2.433,2.433,2.433,2.433,2.433,2.433,2.3983,2.4032,2.4038,2.4095,2.411,2.4149,2.4165,2.4186,2.4204,2.4251,2.4279,2.4289,2.4308,2.4342,2.4372,2.4376,2.4387,2.44,2.4401,2.4342,2.4333,2.4326,2.4314,2.4403,2.4403,2.4462,2.4462,2.4462]},{"header":{"parameterUnit":"m.s-1","parameterCategory":1,"la1":30.2991,"la2":30.254,"lo1":-89.0895,"lo2":-89.0444,"dy":0.0017,"dx":0.0017,"nx":28,"ny":28,"refTime":"2024-07-22T21:00:00:Z","depth":0,"parameterNumber":3,"parameterNumberName":"V-component_of_WINDS"},"data":[0,0,0,0,0,0,0,0,0,0,0,0,0,0,0,0,0,0,0,0,0,0,0,0,0,0,0,0,0,0,0,0,0,0,0,0,0,0,0,0,0,0,0,0,0,0,0,0,0,0,0,0,0,0,0,0,0,0,0.5426,0.5426,0,0.5517,0.5518,0.5519,0.554,0.5539,0.5539,0.5538,0.563,0.5633,0.5636,0,0,0,0,0,0,0,0,0,0,0,0,0,0.5264,0.5267,0.5425,0.5427,0.5428,0.5517,0.5518,0.552,0.554,0.5539,0.5539,0.5538,0.5629,0.5632,0.5636,0,0,0,0,0,0,0,0,0,0,0,0,0,0.5343,0.5268,0.5425,0.5449,0.5452,0.5517,0.5518,0.552,0.554,0.5539,0.5538,0.5538,0.5628,0.5632,0.5636,0.5684,0,0,0.565,0.5652,0,0,0,0,0,0,0,0,0.5338,0.5349,0.5444,0.5447,0.5451,0.5516,0.5495,0.5575,0.5541,0.5507,0.5538,0.5537,0.5593,0.56,0.5619,0.5688,0.5692,0.5651,0.5654,0.5655,0.5657,0,0,0,0,0,0,0,0.5333,0.5345,0.5462,0.5446,0.545,0.5454,0.5464,0.551,0.5554,0.551,0.5511,0.5522,0.5594,0.5615,0.5622,0.5693,0.5651,0.5655,0.5657,0.5659,0.5804,0.5805,0,0,0,0,0,0,0.5324,0.534,0.5459,0.5464,0.5391,0.5457,0.5469,0.5496,0.5553,0.5561,0.5523,0.5523,0.5608,0.5616,0.5625,0.5683,0.5655,0.566,0.5662,0.5802,0.5804,0.5805,0,0,0,0,0,0,0.532,0.5334,0.5455,0.5403,0.5419,0.5461,0.5492,0.5499,0.5519,0.5563,0.5571,0.5536,0.5607,0.5618,0.5669,0.5687,0.5662,0.5666,0.5801,0.5803,0.5804,0.5801,0,0,0,0,0,0,0.5315,0.5333,0.5352,0.5403,0.5421,0.5499,0.5493,0.5501,0.5527,0.5528,0.5578,0.5585,0.5607,0.5662,0.5673,0.5693,0.5669,0.58,0.5802,0.5804,0.58,0.5802,0.5804,0,0,0,0,0,0.531,0.5347,0.5353,0.5367,0.5447,0.55,0.551,0.5535,0.5529,0.5548,0.5576,0.5584,0.5683,0.5667,0.568,0.5701,0.5799,0.5801,0.5804,0.5799,0.5802,0.5804,0,0,0,0,0,0,0.5297,0.5355,0.5362,0.5417,0.5453,0.5503,0.5529,0.5538,0.5577,0.5576,0.5604,0.5615,0.5664,0.5687,0.5668,0.5749,0.574,0.5746,0.5732,0.5735,0.5738,0.5731,0.5673,0,0,0,0,0,0.5301,0.534,0.5388,0.5432,0.545,0.5486,0.551,0.5526,0.5565,0.558,0.5612,0.5648,0.5687,0.5712,0.5751,0.5803,0.5813,0.5823,0.5826,0.5827,0.5832,0.5859,0.5864,0.5813,0.5813,0.5813,0,0,0.5309,0.5345,0.5368,0.543,0.5461,0.5499,0.5499,0.554,0.5569,0.5586,0.5636,0.566,0.5702,0.5753,0.5777,0.5774,0.5848,0.583,0.5832,0.5835,0.5863,0.5867,0.5872,0.5815,0.5815,0.5814,0,0,0.5344,0.5375,0.5415,0.5445,0.5491,0.5514,0.5523,0.5571,0.5588,0.5639,0.5652,0.5685,0.5753,0.5782,0.5806,0.5849,0.5857,0.586,0.5873,0.59,0.5904,0.5908,0.5923,0.5928,0.5864,0.5864,0.5864,0,0.5348,0.5408,0.5434,0.5475,0.5502,0.5519,0.5558,0.5586,0.5641,0.5658,0.5654,0.5738,0.5768,0.5825,0.5835,0.5854,0.5865,0.5855,0.5902,0.5906,0.5909,0.5924,0.5929,0.5864,0.5864,0.5864,0.5864,0,0.5411,0.5452,0.5478,0.5532,0.5561,0.5601,0.5632,0.5658,0.5671,0.5694,0.5744,0.578,0.5825,0.584,0.5853,0.5899,0.5895,0.5896,0.5888,0.5914,0.5928,0.5934,0.5865,0.5865,0.5864,0.5864,0,0,0.5442,0.5508,0.5517,0.5541,0.5592,0.5624,0.5663,0.5708,0.573,0.5766,0.58,0.5855,0.5856,0.5882,0.5898,0.5922,0.5953,0.592,0.5921,0.5924,0.6005,0.6004,0.601,0.5958,0.5959,0.596,0.6001,0,0.5483,0.5556,0.5579,0.564,0.5677,0.5693,0.5727,0.5761,0.5783,0.5817,0.5841,0.588,0.5878,0.5894,0.5918,0.5944,0.5969,0.5941,0.5989,0.599,0.5978,0.6018,0.6018,0.6055,0.6007,0.6008,0.6008,0,0.5541,0.5579,0.5643,0.5687,0.5704,0.5735,0.5777,0.581,0.5847,0.5862,0.5891,0.5904,0.5945,0.5934,0.599,0.597,0.599,0.6006,0.6008,0.6014,0.6001,0.6025,0.6067,0.6073,0.6017,0.6017,0.6016,0,0.5556,0.5623,0.567,0.569,0.5743,0.5764,0.5787,0.5824,0.5849,0.5885,0.5902,0.5942,0.5964,0.5994,0.6018,0.6008,0.6071,0.6062,0.6083,0.6083,0.6097,0.6096,0.6143,0.6109,0.6109,0.6109,0.6109,0,0.56,0.5638,0.5678,0.5707,0.575,0.5775,0.5817,0.584,0.5873,0.5905,0.5921,0.5951,0.598,0.6013,0.6032,0.6075,0.6084,0.6096,0.6101,0.6095,0.6094,0.6109,0.6108,0.611,0.611,0.611,0.6109,0,0.5625,0.5653,0.5705,0.5751,0.5763,0.5793,0.5831,0.5859,0.5881,0.5922,0.5933,0.5967,0.6007,0.6033,0.6084,0.6097,0.6143,0.6147,0.6131,0.6133,0.6152,0.615,0.6212,0.6221,0.6181,0.6181,0.6181,0,0.5651,0.5681,0.573,0.5753,0.5776,0.5813,0.5839,0.5864,0.589,0.5935,0.5957,0.5998,0.6032,0.6095,0.6123,0.6162,0.6167,0.6186,0.6173,0.6166,0.6167,0.6165,0.6168,0.6188,0.6188,0.6189,0.6189,0,0.5694,0.5706,0.5743,0.5784,0.5814,0.5848,0.5881,0.5899,0.593,0.5958,0.5999,0.6026,0.6077,0.6118,0.6159,0.6181,0.619,0.6192,0.6199,0.6194,0.6184,0.6189,0.6136,0.6191,0.6191,0.6191,0.6191,0.6191,0.5721,0.5748,0.5786,0.5826,0.5853,0.5884,0.5912,0.5937,0.5972,0.6017,0.603,0.6072,0.6108,0.6164,0.6186,0.6219,0.6217,0.6227,0.623,0.6232,0.6232,0.6178,0.6227,0.6227,0.6227,0.6227,0.6226,0,0.5764,0.5789,0.5826,0.5872,0.5903,0.5909,0.5945,0.5971,0.6008,0.6041,0.6074,0.6121,0.6159,0.6191,0.623,0.625,0.6255,0.626,0.6259,0.6263,0.6232,0.6222,0.6255,0.6255,0.6255,0.6255,0.6255,0.6255,0.5791,0.5836,0.5852,0.5911,0.5936,0.5978,0.5999,0.6026,0.6052,0.6104,0.6136,0.6157,0.6188,0.623,0.6265,0.6273,0.6287,0.629,0.6299,0.6269,0.6266,0.6263,0.6254,0.6293,0.6293,0.6328,0.6328,0.6329]}]]